FW0689 Weather Reports


Display with metric or nautical units.
time (UTC)temp
F
wind
direction
speed
MPH
gust
MPH
rain 1hr
in
rain 24hr
in
rain mn
in
humidity
%
barometer
mb
20260509060627 47 68 0.0 0.0 0.00 0.00 0.00 39 1024.9
20260509055629 47 67 0.0 0.0 0.00 0.00 0.00 39 1024.7
20260509054628 47 74 0.0 0.0 0.00 0.00 0.00 39 1024.7
20260509052627 46 45 0.0 0.0 0.00 0.00 0.00 39 1024.7
20260509051629 45 45 0.0 0.0 0.00 0.00 0.00 40 1024.7
20260509050629 44 45 0.0 0.0 0.00 0.00 0.00 40 1024.4
20260509045628 42 45 0.0 0.0 0.00 0.00 0.00 41 1024.4
20260509044628 41 45 0.0 0.0 0.00 0.00 0.00 41 1024.2
20260509043630 40 45 0.0 0.0 0.00 0.00 0.00 42 1024.1
20260509042728 40 45 0.0 0.0 0.00 0.00 0.00 42 1024.0
20260509041727 40 67 0.0 0.0 0.00 0.00 0.00 42 1024.1
20260509040728 40 67 0.0 0.0 0.00 0.00 0.00 42 1024.1
20260509035729 40 67 0.0 0.0 0.00 0.00 0.00 42 1024.0
20260509034729 40 67 0.0 0.0 0.00 0.00 0.00 42 1024.0
20260509033828 40 67 0.0 0.0 0.00 0.00 0.00 42 1024.3
20260509032829 40 67 0.0 0.0 0.00 0.00 0.00 42 1024.1
20260509031829 40 67 0.0 0.0 0.00 0.00 0.00 42 1024.3
20260509030828 41 67 0.0 0.0 0.00 0.00 0.00 41 1024.4
20260509025827 41 67 0.0 0.0 0.00 0.00 0.00 41 1024.4
20260509024828 42 67 0.0 0.0 0.00 0.00 0.00 41 1024.6
20260509023829 42 67 0.0 0.0 0.00 0.00 0.00 41 1024.5
20260509022829 42 67 0.0 0.0 0.00 0.00 0.00 40 1024.4
20260509021928 42 67 0.0 0.0 0.00 0.00 0.00 41 1024.5
20260509020931 41 67 0.0 0.0 0.00 0.00 0.00 41 1024.3
20260509015929 41 90 0.0 0.0 0.00 0.00 0.00 41 1024.3
20260509014928 41 90 0.0 0.0 0.00 0.00 0.00 41 1024.4
20260509014027 40 90 0.0 0.0 0.00 0.00 0.00 41 1024.4
20260509013030 41 90 0.0 0.0 0.00 0.00 0.00 41 1024.3
20260509012029 41 90 0.0 0.0 0.00 0.00 0.00 41 1024.5
20260509011028 41 90 0.0 0.0 0.00 0.00 0.00 41 1024.6
20260509005028 42 90 0.0 0.0 0.00 0.00 0.00 41 1024.6
20260509004029 42 90 0.0 0.0 0.00 0.00 0.00 41 1024.5
20260509003028 43 90 0.0 0.0 0.00 0.00 0.00 41 1024.5
20260509001030 42 90 0.0 0.0 0.00 0.00 0.00 41 1024.3
20260509000128 42 90 0.0 0.0 0.00 0.00 0.00 41 1024.3
20260508235128 42 90 0.0 0.0 0.00 0.00 0.00 40 1024.4
20260508234227 42 90 0.0 0.0 0.00 0.00 0.00 41 1024.5
20260508232327 43 90 0.0 0.0 0.00 0.00 0.00 41 1024.5
20260508231327 44 90 0.0 0.0 0.00 0.00 0.00 41 1024.6
20260508230427 45 90 0.0 0.0 0.00 0.00 0.00 41 1024.7
20260508225428 45 90 0.0 0.0 0.00 0.00 0.00 40 1024.7
20260508224429 46 90 0.0 0.0 0.00 0.00 0.00 40 1024.7
20260508223429 47 106 0.0 0.0 0.00 0.00 0.00 40 1024.7
20260508222430 47 90 0.0 0.0 0.00 0.00 0.00 40 1024.7
20260508220430 47 89 0.0 0.0 0.00 0.00 0.00 40 1024.6
20260508215512 48 90 0.0 0.0 0.00 0.00 0.00 40 1024.6
20260508214512 48 90 0.0 0.0 0.00 0.00 0.00 40 1024.7
20260508213510 48 90 0.0 0.0 0.00 0.00 0.00 40 1024.7
20260508211512 49 82 0.0 0.0 0.00 0.00 0.00 40 1024.7
20260508210512 48 86 0.0 0.0 0.00 0.00 0.00 40 1024.5
20260508204512 48 90 0.0 0.0 0.00 0.00 0.00 40 1024.5
20260508203512 49 90 0.0 0.0 0.00 0.00 0.00 41 1024.5
20260508201611 49 66 0.0 0.0 0.00 0.00 0.00 41 1024.5
20260508200709 50 90 0.0 0.0 0.00 0.00 0.00 41 1024.6
20260508193713 51 112 0.0 0.0 0.00 0.00 0.00 42 1024.3
20260508192811 52 112 0.0 0.0 0.00 0.00 0.00 41 1024.3
20260508191810 52 112 0.0 0.0 0.00 0.00 0.00 41 1024.1
20260508190812 53 112 0.0 0.0 0.00 0.00 0.00 42 1024.0
20260508185814 53 112 0.0 0.0 0.00 0.00 0.00 43 1023.9
20260508184813 54 106 0.0 0.0 0.00 0.00 0.00 43 1023.8
20260508183911 55 108 0.0 0.0 0.00 0.00 0.00 44 1023.7
20260508180912 57 107 0.0 0.0 0.00 0.00 0.00 45 1023.5
20260508175912 58 108 0.0 0.0 0.00 0.00 0.00 45 1023.4
20260508175011 58 110 0.0 0.0 0.00 0.00 0.00 45 1023.2
20260508174109 59 99 0.0 0.0 0.00 0.00 0.00 45 1023.1
20260508172111 59 90 0.0 0.0 0.00 0.00 0.00 45 1022.9
20260508171110 59 112 0.0 0.0 0.00 0.00 0.00 45 1022.9
20260508165210 59 110 0.0 0.0 0.00 0.00 0.00 44 1022.7
20260508164225 59 106 0.0 0.0 0.00 0.00 0.00 44 1022.9
20260508161312 60 112 0.0 0.0 0.00 0.00 0.00 43 1022.9
20260508160312 61 101 0.0 0.0 0.00 0.00 0.00 43 1022.8
20260508155312 61 110 0.0 0.0 0.00 0.00 0.00 43 1022.7
20260508154411 60 110 0.0 0.0 0.00 0.00 0.00 44 1022.9
20260508153410 59 107 0.0 0.0 0.00 0.00 0.00 44 1023.0
20260508152410 60 101 0.0 0.0 0.00 0.00 0.00 42 1023.1
20260508151412 61 112 0.0 0.0 0.00 0.00 0.00 42 1022.9
20260508150411 62 14 0.0 0.0 0.00 0.00 0.00 42 1022.9
20260508144412 61 111 0.0 0.0 0.00 0.00 0.00 42 1022.9
20260508143412 60 159 0.0 0.0 0.00 0.00 0.00 42 1023.1
20260508143312 60 109 0.0 0.0 0.00 0.00 0.00 42 1023.1
20260508141312 61 65 0.0 0.0 0.00 0.00 0.00 42 1023.3
20260508140410 60 112 0.0 0.0 0.00 0.00 0.00 42 1023.2
20260508134411 61 80 0.0 0.0 0.00 0.00 0.00 41 1023.3
20260508133412 62 42 0.0 0.0 0.00 0.00 0.00 41 1023.3
20260508132427 62 337 0.0 0.0 0.00 0.00 0.00 41 1023.3
20260508131412 61 31 0.0 0.0 0.00 0.00 0.00 42 1023.4
20260508130511 60 104 0.0 0.0 0.00 0.00 0.00 42 1023.5
20260508125510 60 187 0.0 0.0 0.00 0.00 0.00 43 1023.4
20260508124511 59 114 0.0 0.0 0.00 0.00 0.00 43 1023.6
20260508123610 59 119 0.0 0.0 0.00 0.00 0.00 43 1023.7
20260508121612 59 80 0.0 0.0 0.00 0.00 0.00 41 1023.7
20260508120614 59 92 0.0 0.0 0.00 0.00 0.00 41 1023.7
20260508115612 60 90 0.0 0.0 0.00 0.00 0.00 41 1023.7
20260508114610 60 164 0.0 0.0 0.00 0.00 0.00 41 1023.7
20260508113611 59 101 0.0 0.0 0.00 0.00 0.00 41 1023.8
20260508112612 59 84 0.0 0.0 0.00 0.00 0.00 41 1023.8
20260508111611 59 119 0.0 0.0 0.00 0.00 0.00 41 1023.9
20260508110612 59 104 0.0 0.0 0.00 0.00 0.00 40 1023.9
20260508104710 58 104 0.0 0.0 0.00 0.00 0.00 40 1024.0
20260508103712 58 96 0.0 0.0 0.00 0.00 0.00 40 1024.0
20260508102713 58 126 0.0 0.0 0.00 0.00 0.00 42 1024.0
20260508100712 57 99 0.0 0.0 0.00 0.00 0.00 43 1024.0
20260508094711 57 101 0.0 0.0 0.00 0.00 0.00 44 1024.0
20260508093712 56 78 0.0 0.0 0.00 0.00 0.00 44 1024.2
20260508092713 56 92 0.0 0.0 0.00 0.00 0.00 43 1024.1
20260508091811 56 83 0.0 0.0 0.00 0.00 0.00 42 1024.3
20260508085912 56 96 0.0 0.0 0.00 0.00 0.00 42 1024.3
20260508083912 54 80 0.0 0.0 0.00 0.00 0.00 40 1024.3
20260508082911 53 108 0.0 0.0 0.00 0.00 0.00 40 1024.4
20260508082010 53 109 0.0 0.0 0.00 0.00 0.00 39 1024.3
20260508081011 53 109 0.0 0.0 0.00 0.00 0.00 39 1024.3
20260508075012 53 124 0.0 0.0 0.00 0.00 0.00 39 1024.3
20260508074110 53 128 0.0 0.0 0.00 0.00 0.00 39 1024.4
20260508073112 53 112 0.0 0.0 0.00 0.00 0.00 38 1024.4
20260508071112 50 105 0.0 0.0 0.00 0.00 0.00 38 1024.5
20260508071012 50 96 0.0 0.0 0.00 0.00 0.00 38 1024.3
20260508070013 49 97 0.0 0.0 0.00 0.00 0.00 38 1024.3
20260508065012 49 97 0.0 0.0 0.00 0.00 0.00 38 1024.2
20260508064011 48 91 0.0 0.0 0.00 0.00 0.00 39 1024.1
20260508063012 47 94 0.0 0.0 0.00 0.00 0.00 39 1024.0
20260508062012 47 100 0.0 0.0 0.00 0.00 0.00 39 1024.0